Change the Weather History Date:

Thursday, August 21, 2014

  Actual Average Record
Temperature  
Mean Temperature 74 °F 70 °F  
Max Temperature 83 °F 81 °F 99 °F (1955)
Min Temperature 65 °F 60 °F 42 °F (1950)
Degree Days  
Heating Degree Days 0 0  
Month to date heating degree days 9 0  
Since 1 June heating degree days 51 53  
Since 1 July heating degree days 32 5  
Cooling Degree Days 9 6  
Month to date cooling degree days 113 138  
Year to date cooling degree days 458 564  
Since 1 June cooling degree days 404 523  
Growing Degree Days 24 (Base 50)    
Moisture  
Dew Point 68 °F    
Average Humidity 78    
Maximum Humidity 93    
Minimum Humidity 63    
Precipitation  
Precipitation 0.03 in 0.13 in 1.17 in (1958)
Month to date precipitation 0.73 2.50  
Year to date precipitation 15.97 22.22  
Sea Level Pressure  
Sea Level Pressure 29.96 in    
Wind  
Wind Speed 4 mph (SW)    
Max Wind Speed 15 mph    
Max Gust Speed 18 mph    
Visibility 8 miles    
Events      
T = Trace of Precipitation, MM = Missing Value Source: NWS Daily Summary

Daily Weather History Graph

Daily Weather History Graph

Search for Another Location

Airport or City:

Trip Planner

Search our weather history database for the weather conditions in past years. The results will help you decide how hot, cold, wet, or windy it might be!

Date:

Astronomy

Aug. 21, 2014 Rise Set
Actual Time 6:55 AM EDT 8:33 PM EDT
Civil Twilight 6:26 AM EDT 9:03 PM EDT
Nautical Twilight 5:50 AM EDT 9:39 PM EDT
Astronomical Twilight 5:11 AM EDT 10:17 PM EDT
Moon 3:23 AM EDT (8/21) 6:03 PM EDT (8/21)
Length of Visible Light 14h 37m
Length of Day
13h 37m
Waning Crescent, 13% of the Moon is Illuminated
Aug 21
Waning Crescent
Aug 25
New
Sep 2
First Quarter
Sep 8
Full
Sep 15
Last Quarter

Hourly Weather History & Observations

Time (EDT) Temp. Heat Index Dew Point Humidity Pressure Visibility Wind Dir Wind Speed Gust Speed Precip Events Conditions
12:53 AM 71.1 °F - 64.9 °F 81% 29.97 in 10.0 mi Calm Calm - N/A   Clear
1:53 AM 70.0 °F - 64.9 °F 84% 29.96 in 9.0 mi Calm Calm - N/A   Scattered Clouds
2:53 AM 68.0 °F - 64.9 °F 90% 29.95 in 8.0 mi Calm Calm - N/A   Clear
3:53 AM 66.9 °F - 64.0 °F 90% 29.95 in 6.0 mi Calm Calm - N/A   Partly Cloudy
4:53 AM 66.0 °F - 63.0 °F 90% 29.95 in 5.0 mi SSW 4.6 mph - N/A   Scattered Clouds
5:53 AM 69.1 °F - 66.9 °F 93% 29.95 in 4.0 mi SSW 6.9 mph - N/A   Clear
6:53 AM 69.1 °F - 66.9 °F 93% 29.95 in 3.0 mi SW 5.8 mph - N/A   Clear
7:53 AM 70.0 °F - 66.9 °F 90% 29.96 in 7.0 mi SW 4.6 mph - N/A   Clear
8:53 AM 73.9 °F - 66.9 °F 79% 29.96 in 10.0 mi WSW 4.6 mph - N/A   Clear
9:53 AM 75.9 °F - 66.9 °F 74% 29.98 in 10.0 mi SW 6.9 mph - N/A   Mostly Cloudy
10:53 AM 78.1 °F - 66.0 °F 66% 29.99 in 10.0 mi West 6.9 mph - N/A   Partly Cloudy
11:45 AM 78.1 °F - 66.9 °F 68% 30.00 in 10.0 mi West 8.1 mph - N/A   Mostly Cloudy
11:53 AM 78.1 °F - 66.9 °F 68% 29.99 in 10.0 mi West 6.9 mph - N/A   Overcast
12:53 PM 79.0 °F - 66.9 °F 66% 29.96 in 10.0 mi Variable 3.5 mph - N/A   Mostly Cloudy
1:53 PM 82.0 °F 84.9 °F 68.0 °F 62% 29.95 in 10.0 mi SSE 5.8 mph - N/A   Scattered Clouds
2:53 PM 81.0 °F 84.1 °F 69.1 °F 67% 29.97 in 10.0 mi SSW 10.4 mph - N/A   Mostly Cloudy
3:53 PM 79.0 °F - 69.1 °F 72% 29.98 in 8.0 mi SSW 10.4 mph - N/A   Mostly Cloudy
4:53 PM 75.9 °F - 72.0 °F 87% 29.95 in 5.0 mi SSW 5.8 mph - 0.02 in   Mostly Cloudy
5:37 PM 75.9 °F - 72.0 °F 87% 29.98 in 7.0 mi West 6.9 mph - 0.01 in   Mostly Cloudy
5:53 PM 77.0 °F - 73.0 °F 88% 29.97 in 9.0 mi WSW 5.8 mph - 0.01 in   Mostly Cloudy
6:53 PM 77.0 °F - 70.0 °F 79% 29.96 in 10.0 mi WSW 3.5 mph - N/A   Mostly Cloudy
7:00 PM 77.0 °F - 70.0 °F 79% 29.97 in 10.0 mi SW 4.6 mph - N/A   Scattered Clouds
7:53 PM 77.0 °F - 71.1 °F 82% 29.95 in 10.0 mi Calm Calm - N/A   Clear
8:53 PM 75.0 °F - 71.1 °F 87% 29.94 in 9.0 mi Calm Calm - N/A   Scattered Clouds
9:53 PM 73.9 °F - 71.1 °F 91% 29.95 in 6.0 mi Calm Calm - N/A   Clear
11:53 PM 73.0 °F - 70.0 °F 90% 29.97 in 7.0 mi Calm Calm - N/A   Overcast